STARLINK-4726, 53802

Orbit data source: Space-Track

STARLINK-4726, 53802 is a payload satellite owned by SpaceX/Seattle (US) in LEO that was launched on Sun, 11 Sep 2022 UTC via an FALCON 9 launch vehicle from the Air Force Eastern Test Range (AFETR). Payload-class satellites include a variety of spacecraft equipped with specific instruments for various scientific and technological missions. These include communications satellites like Starlink; space stations such as the ISS; scientific satellites like the Hubble; Earth observation satellites from companies like Planet Labs, Umbra, and HawkEye 360; GPS; miniature CubeSats for education and research; and military/defense satellites.

Loading next visibility...
Identifier
53802, 2022-111AF
Orbit
LEO
Country
Flag of USUS
Related business
Manufacturer
SpaceX/Seattle
Mission
Operational Commercial Communications
Bus & Motor
STARLINK, Unknown motor
Mass
305 kg wet, ~290 kg dry
Launch date (UTC)
2022-09-11 (4 years ago)
Launch vehicle
FALCON 9
Launch site
Air Force Eastern Test Range (AFETR)
Object type
Payload
Rocket body
Debris
Shape & HBR
Box + 1 Pan, 10.1 m
Radar Cross Section
13.562 m², Large (>1 m²)

Expand to show TLE details & history
Last TLE update: 8 hours ago

TLE from 8 hours ago
0 STARLINK-4726
1 53802U 22111AF  26255.92318826  .00000194  00000-0  16875-4 0  9999
2 53802  53.1587 128.8499 0001225  97.3358 262.7784 15.34398896222283
Epoch: 2026-09-12T22:09Z
TLE epoch observation values (Epoch: 2026-09-12T22:09:23.465Z)
Latitude
-0.00002°
Longitude
164.57689°
Altitude
463.713 km
Speed
7.636 km/s
True Right ascension
08h 35m 23s
True Declination
0° 00' 00"
Sunlit
Object was in daylight at epoch
Visualization orbit readout
Latitude
Unknown
Longitude
Unknown
Altitude
Unknown
Speed
Unknown
Apparent Right ascension
Unknown
Apparent Declination
Unknown
Sunlit
N/A
Visualization observer readout
Local Sidereal Time
22:11:15
Azimuth
Unknown
Elevation
Unknown
Doppler factor
Unknown
Orbital elements
Apogee altitude
463.802 km
Perigee altitude
462.126 km
Semi-major axis
6,841.101 km
Eccentricity
0.00012
Inclination
53.1587°
RAAN
128.8499°
Arg. of periapsis
97.3358°
True anomaly
262.76447°
Mean anomaly
262.7784°
Eccentric anomaly
262.77144°
Mean motion
3.83578 °/min
Orbital period
93.85 mins
BSTAR
0.000016875
Loading maneuver chart data...
Computing Atmospheric mass density...

Documentation

Showing up to 5 results
|